| time (UTC) | temp C | wind direction | speed KPH | gust KPH | rain 1hr cm | rain 24hr cm | rain mn cm | humidity % | barometer mb |
| 20260505130203 | 17 | 117 | 0.0 | 4.8 | 0.00 | 0.00 | 0.00 | 64 | 1013.8 |
| 20260505124704 | 16 | 79 | 4.8 | 8.0 | 0.00 | 0.00 | 0.00 | 63 | 1013.5 |
| 20260505124204 | 16 | 45 | 3.2 | 4.8 | 0.00 | 0.00 | 0.00 | 64 | 1013.5 |
| 20260505123204 | 16 | 101 | 4.8 | 9.7 | 0.00 | 0.00 | 0.00 | 64 | 1013.5 |
| 20260505121204 | 15 | 90 | 4.8 | 8.0 | 0.00 | 0.00 | 0.00 | 64 | 1013.3 |
| 20260505114704 | 15 | 109 | 0.0 | 0.0 | 0.00 | 0.00 | 0.00 | 66 | 1013.2 |
| 20260505113704 | 14 | 45 | 0.0 | 0.0 | 0.00 | 0.00 | 0.00 | 64 | 1013.2 |
| 20260505113204 | 14 | 80 | 0.0 | 0.0 | 0.00 | 0.00 | 0.00 | 64 | 1013.2 |
| 20260505111704 | 14 | 74 | 0.0 | 0.0 | 0.00 | 0.00 | 0.00 | 66 | 1013.1 |
| 20260505110204 | 13 | 112 | 0.0 | 0.0 | 0.00 | 0.00 | 0.00 | 66 | 1012.8 |
| 20260505101704 | 14 | 146 | 3.2 | 4.8 | 0.00 | 0.00 | 0.00 | 61 | 1012.6 |
| 20260505101204 | 15 | 359 | 3.2 | 4.8 | 0.00 | 0.00 | 0.00 | 61 | 1012.3 |
| 20260505100704 | 15 | 338 | 1.6 | 4.8 | 0.00 | 0.00 | 0.00 | 61 | 1012.3 |
| 20260505100204 | 15 | 70 | 3.2 | 4.8 | 0.00 | 0.00 | 0.00 | 61 | 1012.3 |
| 20260505094704 | 15 | 35 | 3.2 | 8.0 | 0.00 | 0.00 | 0.00 | 60 | 1012.5 |
| 20260505093704 | 15 | 17 | 4.8 | 4.8 | 0.00 | 0.00 | 0.00 | 59 | 1012.6 |
| 20260505093203 | 15 | 73 | 3.2 | 8.0 | 0.00 | 0.00 | 0.00 | 59 | 1012.8 |
| 20260505091704 | 15 | 112 | 3.2 | 8.0 | 0.00 | 0.00 | 0.00 | 59 | 1012.8 |
| 20260505090704 | 15 | 0 | 3.2 | 4.8 | 0.00 | 0.00 | 0.00 | 59 | 1012.7 |
| 20260505090203 | 15 | 101 | 4.8 | 4.8 | 0.00 | 0.00 | 0.00 | 59 | 1012.7 |
| 20260505083204 | 15 | 9 | 3.2 | 4.8 | 0.00 | 0.00 | 0.00 | 59 | 1012.7 |
| 20260505081704 | 16 | 281 | 3.2 | 4.8 | 0.00 | 0.00 | 0.00 | 58 | 1012.5 |
| 20260505080704 | 16 | 59 | 0.0 | 4.8 | 0.00 | 0.00 | 0.00 | 59 | 1012.5 |
| 20260505080204 | 16 | 357 | 3.2 | 4.8 | 0.00 | 0.00 | 0.00 | 59 | 1012.5 |
| 20260505073704 | 16 | 43 | 1.6 | 4.8 | 0.00 | 0.00 | 0.00 | 59 | 1012.3 |
| 20260505073204 | 16 | 150 | 0.0 | 4.8 | 0.00 | 0.00 | 0.00 | 59 | 1012.3 |
| 20260505071704 | 16 | 315 | 3.2 | 8.0 | 0.00 | 0.00 | 0.00 | 59 | 1012.3 |
| 20260505070704 | 16 | 354 | 3.2 | 4.8 | 0.00 | 0.00 | 0.00 | 59 | 1012.3 |
| 20260505070204 | 16 | 312 | 1.6 | 8.0 | 0.00 | 0.00 | 0.00 | 59 | 1012.3 |
| 20260505063704 | 16 | 116 | 1.6 | 4.8 | 0.00 | 0.00 | 0.00 | 58 | 1012.6 |
| 20260505061704 | 17 | 20 | 1.6 | 9.7 | 0.00 | 0.00 | 0.00 | 57 | 1012.7 |
| 20260505060705 | 17 | 324 | 4.8 | 8.0 | 0.00 | 0.00 | 0.00 | 57 | 1012.6 |
| 20260505054704 | 17 | 199 | 3.2 | 8.0 | 0.00 | 0.00 | 0.00 | 57 | 1012.5 |
| 20260505053704 | 17 | 309 | 1.6 | 8.0 | 0.00 | 0.00 | 0.00 | 58 | 1012.4 |
| 20260505053204 | 17 | 325 | 4.8 | 11.3 | 0.00 | 0.00 | 0.00 | 58 | 1012.3 |
| 20260505050204 | 17 | 337 | 0.0 | 4.8 | 0.00 | 0.00 | 0.00 | 60 | 1012.3 |
| 20260505041704 | 17 | 303 | 3.2 | 8.0 | 0.00 | 0.00 | 0.00 | 60 | 1011.8 |
| 20260505041204 | 17 | 51 | 3.2 | 4.8 | 0.00 | 0.00 | 0.00 | 60 | 1011.8 |
| 20260505034704 | 18 | 24 | 3.2 | 4.8 | 0.00 | 0.00 | 0.00 | 59 | 1011.6 |
| 20260505034204 | 18 | 80 | 4.8 | 9.7 | 0.00 | 0.00 | 0.00 | 58 | 1011.6 |
| 20260505033704 | 18 | 89 | 4.8 | 8.0 | 0.00 | 0.00 | 0.00 | 58 | 1011.5 |
| 20260505033204 | 18 | 67 | 8.0 | 11.3 | 0.00 | 0.00 | 0.00 | 58 | 1011.3 |
| 20260505031204 | 18 | 103 | 3.2 | 4.8 | 0.00 | 0.00 | 0.00 | 58 | 1011.6 |
| 20260505030704 | 18 | 28 | 4.8 | 9.7 | 0.00 | 0.00 | 0.00 | 57 | 1011.6 |
| 20260505024704 | 18 | 45 | 4.8 | 8.0 | 0.00 | 0.00 | 0.00 | 58 | 1011.5 |
| 20260505024204 | 18 | 32 | 4.8 | 8.0 | 0.00 | 0.00 | 0.00 | 58 | 1011.5 |
| 20260505023704 | 18 | 59 | 4.8 | 8.0 | 0.00 | 0.00 | 0.00 | 58 | 1011.5 |
| 20260505021204 | 18 | 72 | 3.2 | 9.7 | 0.00 | 0.00 | 0.00 | 58 | 1011.3 |
| 20260505020704 | 18 | 45 | 4.8 | 4.8 | 0.00 | 0.00 | 0.00 | 58 | 1011.3 |
| 20260505014704 | 18 | 55 | 0.0 | 4.8 | 0.00 | 0.00 | 0.00 | 58 | 1011.5 |
| 20260505013704 | 19 | 22 | 3.2 | 3.2 | 0.00 | 0.00 | 0.00 | 57 | 1011.5 |
| 20260505000704 | 22 | 103 | 4.8 | 9.7 | 0.00 | 0.00 | 0.00 | 47 | 1011.0 |
| 20260504234204 | 23 | 76 | 4.8 | 9.7 | 0.00 | 0.00 | 0.00 | 44 | 1010.8 |
| 20260504233204 | 23 | 123 | 6.4 | 11.3 | 0.00 | 0.00 | 0.00 | 43 | 1010.8 |
| 20260504231704 | 24 | 20 | 8.0 | 12.9 | 0.00 | 0.00 | 0.00 | 40 | 1010.8 |
| 20260504231204 | 25 | 22 | 4.8 | 9.7 | 0.00 | 0.00 | 0.00 | 38 | 1010.8 |
| 20260504230704 | 25 | 60 | 3.2 | 12.9 | 0.00 | 0.00 | 0.00 | 34 | 1010.8 |
| 20260504224204 | 26 | 252 | 14.5 | 20.9 | 0.00 | 0.00 | 0.00 | 29 | 1011.1 |
| 20260504223203 | 25 | 319 | 6.4 | 19.3 | 0.00 | 0.00 | 0.00 | 32 | 1011.1 |
| 20260504221204 | 26 | 311 | 12.9 | 20.9 | 0.00 | 0.00 | 0.00 | 31 | 1011.0 |
| 20260504220204 | 26 | 221 | 9.7 | 19.3 | 0.00 | 0.00 | 0.00 | 33 | 1011.0 |
| 20260504214704 | 26 | 271 | 9.7 | 11.3 | 0.00 | 0.00 | 0.00 | 33 | 1011.0 |
| 20260504214203 | 26 | 122 | 4.8 | 19.3 | 0.00 | 0.00 | 0.00 | 33 | 1011.0 |
| 20260504213204 | 26 | 144 | 14.5 | 19.3 | 0.00 | 0.00 | 0.00 | 34 | 1010.8 |
| 20260504211204 | 25 | 84 | 9.7 | 14.5 | 0.00 | 0.00 | 0.00 | 37 | 1011.0 |
| 20260504210704 | 25 | 313 | 9.7 | 14.5 | 0.00 | 0.00 | 0.00 | 38 | 1011.0 |
| 20260504210204 | 26 | 346 | 8.0 | 20.9 | 0.00 | 0.00 | 0.00 | 36 | 1011.0 |
| 20260504203703 | 25 | 203 | 9.7 | 19.3 | 0.00 | 0.00 | 0.00 | 37 | 1011.2 |
| 20260504201704 | 26 | 308 | 6.4 | 12.9 | 0.00 | 0.00 | 0.00 | 35 | 1011.6 |
| 20260504201204 | 26 | 44 | 6.4 | 9.7 | 0.00 | 0.00 | 0.00 | 35 | 1011.6 |
| 20260504200204 | 27 | 248 | 8.0 | 19.3 | 0.00 | 0.00 | 0.00 | 35 | 1011.6 |
| 20260504193704 | 27 | 180 | 3.2 | 14.5 | 0.00 | 0.00 | 0.00 | 39 | 1011.9 |
| 20260504191704 | 26 | 36 | 9.7 | 16.1 | 0.00 | 0.00 | 0.00 | 39 | 1012.2 |
| 20260504184704 | 25 | 278 | 8.0 | 12.9 | 0.00 | 0.00 | 0.00 | 42 | 1012.7 |
| 20260504184204 | 25 | 136 | 9.7 | 14.5 | 0.00 | 0.00 | 0.00 | 42 | 1012.7 |
| 20260504180703 | 25 | 102 | 9.7 | 11.3 | 0.00 | 0.00 | 0.00 | 43 | 1013.2 |
| 20260504180204 | 25 | 67 | 11.3 | 20.9 | 0.00 | 0.00 | 0.00 | 43 | 1013.2 |
| 20260504174704 | 23 | 75 | 9.7 | 12.9 | 0.00 | 0.00 | 0.00 | 43 | 1013.5 |
| 20260504171704 | 23 | 62 | 9.7 | 12.9 | 0.00 | 0.00 | 0.00 | 46 | 1013.8 |
| 20260504171205 | 23 | 162 | 6.4 | 14.5 | 0.00 | 0.00 | 0.00 | 45 | 1014.0 |
| 20260504170704 | 23 | 42 | 8.0 | 11.3 | 0.00 | 0.00 | 0.00 | 44 | 1014.0 |
| 20260504150704 | 19 | 255 | 4.8 | 14.5 | 0.00 | 0.00 | 0.00 | 52 | 1015.3 |
| 20260504140704 | 15 | 101 | 4.8 | 8.0 | 0.00 | 0.00 | 0.00 | 59 | 1016.3 |